Zurück zum Katalog

FENGYUN 1C DEB

AktivSSO
NORAD 33716·DEBRIS·🇨🇳 China

Gestartet May 10, 1999 von Taiyuan Satellite Launch Center

Loading…

Nächste Überflüge (nächste 24 Stunden)

TLE

AktuellSource: Space-Track

Epoche: Sep 12, 2026, 02:10 UTC

1 33716U 99025DHD 26255.09041265  .00000167  00000-0  75159-4 0  9997
2 33716  98.8884 192.4920 0092175 277.3743  81.6972 14.32880681690729

Verfolge FENGYUN 1C DEB in Echtzeit mit AllMySat

Download on the App Store